Location: 22
(39.7117°N, 89.5929°W)
Time: 00:59:29
(UTC-06:00)

Vanguard 1 - Pass Details

Date: 11 August 2025
Orbit: 651 x 3820 km, 34.3° (Epoch: 6 February)

Event Time Altitude Azimuth Distance (km) Brightness Sun altitude
Rises 00:52:17 0° 279° (W) 5,961 14.2 -35.0°
Reaches altitude 10° 00:57:15 10° 273° (W) 4,397 13.4 -35.1°
Enters shadow 01:02:05 23° 258° (WSW) 2,898 12.3 -35.1°
Maximum altitude 01:06:39 36° 212° (SSW) 1,919 - -35.1°
Drops below altitude 10° 01:12:21 10° 147° (SSE) 2,640 - -35.1°
Sets 01:14:37 0° 137° (SE) 3,364 - -35.1°
